Regional Weather Roundup
Issued by NWS

Home | Current Version | Previous Version | Graphics & Text | Print | Product List | Glossary On
Versions: 1 2 3 4 5 6 7 8 9 10 11 12 13 14 15 16 17 18 19 20 21 22 23 24 25 26 27 28 29 30 31 32 33 34 35 36 37 38 39 40 41 42 43 44 45 46 47 48 49 50
000
ASUS43 KIND 041109
RWRIN

WEATHER ROUNDUP FOR INDIANA
NATIONAL WEATHER SERVICE INDIANAPOLIS IN
600 AM EST WED MAR 04 2015

NOTE: "FAIR" INDICATES FEW OR NO CLOUDS BELOW 12,000 FEET WITH NO
SIGNIFICANT WEATHER AND/OR OBSTRUCTIONS TO VISIBILITY.

* - STATION DOES NOT REPORT WEATHER SUCH AS PRECIPITATION OR FOG.

+ - STATION NOT QUALITY CONTROLLED BY THE NATIONAL WEATHER SERVICE.
    USE DATA WITH CAUTION...ESPECIALLY DEWPOINT AND RELATIVE
    HUMIDITY OBSERVATIONS.

INZ001>003-010>013-019-020-041200-
NORTHWEST INDIANA

CITY           SKY/WX    TMP DP  RH WIND       PRES   REMARKS
GARY /AIRPORT/ CLOUDY    30  19  64 W14       29.97R WCI  20
KNOX *+          N/A     30  18  59 W7        29.93R WCI  23
LA PORTE +     CLOUDY    32  26  77 NW6       29.94R WCI  26
MICHIGAN CITY+ CLOUDY    30  21  69 NW9       29.95R WCI  22
MONTICELLO +   MOCLDY    28  25  88 W6        29.94R WCI  22
RENSSELAER +   CLOUDY    32  30  93 W13       29.97R WCI  22
VALPARAISO     CLOUDY    29  22  75 W9        29.94R WCI  20

$$

LMZ046-743>745-041200-
SOUTHERN LAKE MICHIGAN

STATION/POSITION TIME  TEMP WIND        PRES
                       AIR  DIR/SP/G
                 (UTC) (F)  (DEG/KT/KT) (MB)
MICHIGAN CITY    1100   30  270/ 14/ 16   N/A

$$

INZ004-005-014>016-021>024-041200-
NORTH CENTRAL INDIANA

CITY           SKY/WX    TMP DP  RH WIND       PRES   REMARKS
GOSHEN         CLOUDY    29  24  82 W7        29.90R WCI  22
LOGANSPORT +   CLOUDY    28  25  86 W5        29.95R WCI  23
PERU/GRISSOM   CLOUDY    31  27  86 NW7       29.92R WCI  24
ROCHESTER +    MOCLDY    32  28  86 W5        29.93R WCI  27
SOUTH BEND     CLOUDY    31  25  78 NW9       29.92R WCI  23
WARSAW +       MOCLDY    28  27  93 W7        29.91R WCI  21

$$

INZ006>009-017-018-025>027-041200-
NORTHEAST INDIANA

CITY           SKY/WX    TMP DP  RH WIND       PRES   REMARKS
ANGOLA *+      CLOUDY    30  21  69 W3        29.87R
FORT WAYNE     CLOUDY    31  24  75 W6        29.91R WCI  25
HUNTINGTON +   CLOUDY    32  23  71 NW5       29.92R WCI  27

$$

INZ028-029-035-036-043>045-051>053-041200-
WEST CENTRAL INDIANA

CITY           SKY/WX    TMP DP  RH WIND       PRES   REMARKS
CRAWFORDSVL +  CLOUDY    30  23  74 W9        29.96R WCI  21
GREENCASTLE +  CLOUDY    32  27  80 NW6       29.95R WCI  26
LAFAYETTE      CLOUDY    30  25  81 W6        29.97R WCI  24
TERRE HAUTE    CLOUDY    33  28  81 NW8       29.97R WCI  26

$$

INZ030>032-037>040-046>048-054>057-064-065-041200-
CENTRAL INDIANA

CITY           SKY/WX    TMP DP  RH WIND       PRES   REMARKS
CP ATTERBURY + LGT RAIN  34  32  93 NW6       29.94R WCI  29
FRANKFORT +    CLOUDY    31  28  90 W8        29.96R WCI  23
GREENWOOD *+   CLOUDY    32  27  80 NW5       29.94R WCI  27
INDIANAPOLIS   CLOUDY    33  26  75 NW9       29.92R WCI  25
-EAGLE CREEK   CLOUDY    31  27  85 NW10      29.93R WCI  22
KOKOMO *+      CLOUDY    30  28  93 NW9       29.93R WCI  22
MARION +       CLOUDY    31  29  92 W7        29.92R WCI  24
MT COMFORT *+  CLOUDY    32  25  74 NW6       29.92R WCI  26
SHELBYVILLE    CLOUDY    35  31  85 W3        29.91S
ZIONSVILLE +   CLOUDY    32  27  82 W6        29.94R WCI  26

$$

INZ033-034-041-042-049-050-058-059-041200-
EAST CENTRAL INDIANA

CITY           SKY/WX    TMP DP  RH WIND       PRES   REMARKS
MUNCIE         CLOUDY    32  29  88 NW7       29.90R WCI  26

$$

INZ060-061-067>069-081>083-085>088-041200-
SOUTHWEST INDIANA

CITY           SKY/WX    TMP DP  RH WIND       PRES   REMARKS
EVANSVILLE     LGT RAIN  37  33  85 N8        29.96R
HUNTINGBURG *+ CLOUDY    36  34  93 NW6       29.96R
WASHINGTON +   RAIN      33  30  89 NW8       29.96R WCI  26

$$

INZ062-063-066-070>080-084-089>092-041200-
SOUTH CENTRAL AND SOUTHEAST INDIANA

CITY           SKY/WX    TMP DP  RH WIND       PRES   REMARKS
BEDFORD +      LGT RAIN  34  34 100 CALM      29.92R
BLOOMINGTON    LGT RAIN  33  31  92 N8        29.93R FOG     WCI  26
NORTH VERNON + LGT RAIN  34  34 100 N6        29.93R WCI  29
SEYMOUR +      LGT RAIN  36  36 100 N3        29.93R

$$



USA.gov is the U.S. government's official web portal to all federal, state and local government web resources and services.